Location: Unspecified
(52.5095°N, 0.0000°E)
Time: 04:00:52
(UTC+00:00)

OSCAR 3 - Visible Passes

Search period start: 04 April 2026 00:00
Search period end: 14 April 2026 00:00
Orbit: 850 x 879 km, 70.1° (Epoch: 29 March)

Date Brightness Start Highest point End Pass type
(mag) Time Alt. Az. Time Alt. Az. Time Alt. Az.
4 Apr ? 00:42:11 20° E 00:42:11 20° E 00:45:45 10° ENE visible
4 Apr ? 02:24:28 62° SW 02:25:33 88° WNW 02:31:28 10° NNE visible
4 Apr ? 04:06:45 13° W 04:11:02 27° NW 04:16:00 10° NNE visible
5 Apr ? 00:34:12 21° E 00:34:12 21° E 00:37:45 10° NE visible
5 Apr ? 02:16:29 64° SW 02:17:26 84° WNW 02:23:21 10° NNE visible
5 Apr ? 03:58:46 13° W 04:02:59 26° NNW 04:07:52 10° NNE visible
6 Apr ? 00:26:10 22° E 00:26:10 22° E 00:29:44 10° NE visible
6 Apr ? 02:08:27 65° WSW 02:09:19 79° NW 02:15:14 10° NNE visible
6 Apr ? 03:50:44 12° W 03:54:56 25° NNW 03:59:44 10° NNE visible
7 Apr ? 00:18:07 23° E 00:18:07 23° E 00:21:42 10° NE visible
7 Apr ? 02:00:24 64° WSW 02:01:12 75° NW 02:07:06 10° NNE visible
7 Apr ? 03:42:41 12° W 03:46:52 24° NNW 03:51:36 10° NNE visible
8 Apr ? 00:10:02 25° E 00:10:02 25° E 00:13:39 10° NE visible
8 Apr ? 01:52:19 63° WSW 01:53:06 71° NW 01:58:59 10° NNE visible
8 Apr ? 03:34:36 11° W 03:38:50 23° NNW 03:43:28 10° NNE visible
9 Apr ? 00:01:56 26° E 00:01:56 26° E 00:05:37 10° NE visible
9 Apr ? 01:44:12 60° W 01:44:59 67° NW 01:50:51 10° NNE visible
9 Apr ? 03:26:29 11° WNW 03:30:47 23° NNW 03:35:20 10° NNE visible
9 Apr ? 23:53:48 28° E 23:53:48 28° E 23:57:34 10° NE visible
10 Apr ? 01:36:04 57° W 01:36:53 63° NW 01:42:43 10° NNE visible
10 Apr ? 03:18:21 10° WNW 03:22:44 22° NNW 03:27:12 10° NNE visible
10 Apr ? 23:45:37 29° E 23:45:37 29° E 23:49:30 10° NE visible
11 Apr ? 01:27:54 54° W 01:28:46 60° NW 01:34:35 10° NNE visible
11 Apr ? 03:10:19 10° WNW 03:14:42 21° NNW 03:19:05 10° NNE visible
11 Apr ? 23:37:26 31° E 23:37:26 31° E 23:41:25 10° NE visible
12 Apr ? 01:19:42 50° W 01:20:40 57° NW 01:26:28 10° NNE visible
12 Apr ? 03:02:21 10° WNW 03:06:39 20° NNW 03:10:57 10° NNE visible
12 Apr ? 23:29:11 33° E 23:29:11 33° E 23:33:21 10° NE visible
13 Apr ? 01:11:28 47° W 01:12:33 54° NW 01:18:20 10° NNE visible
13 Apr ? 02:54:24 10° WNW 02:58:36 20° NNW 03:02:49 10° NNE visible
13 Apr ? 23:20:55 36° E 23:20:55 36° E 23:25:16 10° NE visible
